Regional Weather Roundup
Issued by NWS Jackson, KY

Home | Current Version | Previous Version | Text Only | Print | Product List | Glossary On
Versions: 1 2 3 4 5 6 7 8 9 10 11 12 13 14 15 16 17 18 19 20 21 22 23 24 25 26 27 28 29 30 31 32 33 34 35 36 37 38 39 40 41 42 43 44 45 46 47 48 49 50
000
ASUS43 KJKL 181410
RWRJKL

EAST KENTUCKY HOURLY WEATHER ROUNDUP
NATIONAL WEATHER SERVICE JACKSON KY
1000 AM EDT TUE SEP 18 2018

NOTE: "FAIR" INDICATES FEW OR NO CLOUDS BELOW 12,000 FEET WITH
NO SIGNIFICANT WEATHER AND/OR OBSTRUCTIONS TO VISIBILITY.

* THESE REPORTS ARE NOT UNDER NWS QUALITY CONTROL AND MAY NOT
  REPORT WEATHER SUCH AS PRECIPITATION AND FOG.

KYZ079-080-083-085-087-088-110-112-115-119-120-181500
...EASTERN KENTUCKY...

CITY           SKY/WX    TMP DP  RH WIND       PRES   REMARKS
JACKSON          N/A     74  69  85 VRB5      30.02S
LONDON         CLOUDY    71  71 100 SW5       30.03R
SOMERSET*        N/A     72  72 100 W3        30.04R
MONTICELLO*      N/A     78  71  79 W13       30.04S
WILLIAMSBURG*    N/A     73  73 100 CALM      30.03S
MIDDLESBORO*   CLOUDY    70  70 100 CALM      30.04S
HARLAN APT*    PTSUNNY   72  69  89 W5        30.04S
PIKE CO APT*   CLOUDY    71  71 100 W5        30.02S
BIG SANDY APT* CLOUDY    72  72 100 CALM      30.02R
MOREHEAD APT*    N/A     72  72 100 CALM      30.02R
ASHLAND*       CLOUDY    72  70  93 W3        29.98S
$$

KYZ035-036-041-042-044-050-067-078-099-181500
...CENTRAL KENTUCKY...

CITY           SKY/WX    TMP DP  RH WIND       PRES   REMARKS
MT STERLING*     N/A     75  70  83 W3        30.02S
FLEMING/MASON*   N/A     73  71  95 CALM      30.01R
DANVILLE*        N/A     79  68  69 CALM      30.02S
LEXINGTON        N/A     77  71  82 SW3       30.00S
FRANKFORT        N/A     78  71  79 W3        29.98S
LOUISVILLE     PTSUNNY   78  70  76 SW3       29.98S
LEBANON*         N/A     75  70  83 CALM      30.01R
GLASGOW*         N/A     77  71  81 SW5       30.01S
BOWLING GREEN    N/A     78  72  81 CALM      30.01S
$$

KYZ091>093-OHZ055-061-077-WVZ005-015-034-035-042-181500
...SOUTHERN OHIO/WEST VIRGINIA...

CITY           SKY/WX    TMP DP  RH WIND       PRES   REMARKS
COVINGTON      PTSUNNY   78  72  81 CALM      29.98R
COLUMBUS         N/A     74  68  81 CALM      29.96S
DAYTON           N/A     78  67  68 W3        29.99S
WILMINGTON       N/A     77  71  82 NW5       29.99R
HUNTINGTON     CLOUDY    74  69  85 SW3       29.98S
CHARLESTON     PTSUNNY   72  70  93 NW3       29.98R
PINEVILLE*     PTSUNNY   72  69  88 MISG      30.06S
BECKLEY        CLOUDY    68  64  87 NW6       30.03R
BLUEFIELD      CLOUDY    66  65  96 NW5       30.06R
LOGAN CO APT*  CLOUDY    72  70  94 VRB3      30.02R
$$

VAZ002-007-008-TNZ017-027-036-066-071-181500
...SOUTHWEST VIRGINIA/EAST TENNESSEE...

CITY           SKY/WX    TMP DP  RH WIND       PRES   REMARKS
WISE*          CLOUDY    70  70 100 NW5       30.09S
ABINGDON*        N/A     74  71  89 NW8       30.05S
BRISTOL        PTSUNNY   74  71  91 SW7       30.04S
MORRISTOWN*    PTSUNNY   75  72  88 VRB6      30.03S
SEVIERVILLE*   PTSUNNY   73  70  88 CALM      30.03S
KNOXVILLE      PTSUNNY   73  71  93 SW5       30.02S
LAFOLLETTE*    PTSUNNY   75  72  88 CALM      30.06S
OAK RIDGE        N/A     74  72  93 W5        30.04S
CROSSVILLE       N/A     72  68  87 W5        30.08S
NASHVILLE        N/A     79  69  71 CALM      30.03R
$$

...KEY TO REMARKS...
VSB - VISIBILITY IN MILES
WCI - WIND CHILL INDEX
HX  - HEAT INDEX

$$



USA.gov is the U.S. government's official web portal to all federal, state and local government web resources and services.